Tracking 23645 objects as of 21-Sep-2021
HD Live streaming from Space Station
objects crossing your sky now

NINGXIA-1 4

Track NINGXIA-1 4 now!
10-day predictions


NORAD ID: 44782
Int'l Code: 2019-076D
Perigee: 885.2 km
Apogee: 905.0 km
Inclination: 45.0 °
Period: 102.7 minutes
Semi major axis: 7266 km
RCS: Unknown
Launch date: November 13, 2019
Source: People's Republic of China (PRC)
Launch site: Taiyaun Space Center, China (TSC)
aabbcc
Your satellite tracking list
Your tracking list is empty




NASA's NSSDC Master Catalog

Two Line Element Set (TLE):
1 44782U 19076D   21264.18048307 -.00000103  00000-0  17114-4 0  9997
2 44782  45.0116 348.0241 0013626 225.6423 134.3296 14.01689786 95112
Source of the keplerian elements: AFSPC